Date String (YYYY-MM-DD hh:mm:ss) UTC,Instrument flags,Ambient pressure (hPa),Sample flow (lpm),Bypass flow (lpm),Sample temperature (°C),Ambient temperature (°C),ASC tube jacket temperature (°C),LED temperature (°C),Box temperature (°C),Sample RH (%),Span deviation,Mass concentration (μg/m³),Mass concentration (μg/m³),Mass concentration (μg/m³)
DateTimeUTC,F1_M11,P_M11,Q1_M11,Q2_M11,T1_M11,T2_M11,T3_M11,T4_M11,T5_M11,U1_M11,ZSPAN_M11,X0_M11,X2_M11,X1_M11
2022-08-17 18:00:00,,0833.2,5.00,0.00,30.6,28.1,00.0,39.2,31.7,31.3,0000.9,0010.97,0006.65,0006.13
2022-08-17 18:01:00,,0833.1,5.01,0.00,30.6,28.2,00.0,39.2,31.8,31.7,0001.0,0010.92,0006.51,0006.03
2022-08-17 18:02:00,,0833.1,4.99,0.00,30.6,28.3,00.0,39.2,31.9,32.3,0000.7,0011.11,0006.43,0005.94
2022-08-17 18:03:00,,0833.1,5.00,0.00,30.6,28.5,00.0,39.2,31.9,31.2,0000.3,0011.15,0006.39,0005.87
2022-08-17 18:04:00,,0833.2,5.00,0.00,30.6,28.5,00.0,39.2,31.9,32.0,-000.1,0011.42,0006.31,0005.80
2022-08-17 18:05:00,,0833.2,5.02,0.00,30.5,28.1,00.0,39.1,31.8,32.0,0000.1,0011.74,0006.29,0005.77
2022-08-17 18:06:00,,0833.1,4.99,0.00,30.5,27.6,00.0,39.0,31.6,31.3,0000.0,0011.74,0006.24,0005.70
2022-08-17 18:07:00,,0833.1,5.01,0.00,30.4,27.4,00.0,39.0,31.5,31.7,-000.4,0010.93,0006.14,0005.62
2022-08-17 18:08:00,,0833.1,4.99,0.00,30.2,27.4,00.0,39.0,31.4,30.9,-000.4,0010.73,0006.06,0005.54
2022-08-17 18:09:00,,0833.1,5.01,0.00,30.2,27.5,00.0,38.9,31.5,31.2,-000.5,0010.70,0006.02,0005.48
2022-08-17 18:10:00,,0833.0,5.01,0.00,30.2,27.6,00.0,38.9,31.5,31.1,-000.5,0010.60,0005.94,0005.41
2022-08-17 18:11:00,,0833.1,5.00,0.00,30.1,27.8,00.0,38.9,31.6,30.1,-000.9,0010.48,0005.87,0005.33
2022-08-17 18:12:00,,0833.0,5.00,0.00,30.1,28.0,00.0,38.9,31.6,31.2,-001.0,0010.36,0005.86,0005.30
2022-08-17 18:13:00,,0833.1,5.01,0.00,30.1,28.1,00.0,38.8,31.7,31.3,-001.1,0009.89,0005.81,0005.27
2022-08-17 18:14:00,,0833.0,5.01,0.00,30.1,28.2,00.0,38.8,31.7,31.3,-001.3,0009.86,0005.80,0005.26
2022-08-17 18:15:00,,0833.0,5.00,0.00,30.1,28.4,00.0,38.8,31.7,30.5,-001.0,0009.56,0005.80,0005.24
2022-08-17 18:16:00,,0833.1,4.99,0.00,30.2,28.5,00.0,38.8,31.7,30.8,-001.2,0009.03,0005.73,0005.17
2022-08-17 18:17:00,,0833.1,5.01,0.00,30.2,28.2,00.0,38.8,31.7,31.1,-000.8,0008.98,0005.68,0005.14
2022-08-17 18:18:00,,0833.0,4.99,0.00,30.1,27.6,00.0,38.7,31.5,31.8,-000.8,0009.35,0005.69,0005.13
2022-08-17 18:19:00,,0833.0,4.99,0.00,30.0,27.3,00.0,38.7,31.4,30.6,-000.7,0009.37,0005.73,0005.14
2022-08-17 18:20:00,,0832.9,5.00,0.00,29.9,27.3,00.0,38.6,31.3,29.9,-000.8,0009.32,0005.72,0005.16
2022-08-17 18:21:00,,0832.8,4.99,0.00,29.8,27.4,00.0,38.6,31.3,31.5,-000.8,0009.50,0005.77,0005.19
2022-08-17 18:22:00,,0832.8,5.02,0.00,29.8,27.5,00.0,38.6,31.3,31.0,-000.8,0009.56,0005.84,0005.26
2022-08-17 18:23:00,,0832.8,5.00,0.00,29.8,27.7,00.0,38.6,31.4,32.2,-000.5,0010.41,0005.82,0005.26
2022-08-17 18:24:00,,0832.9,5.00,0.00,29.8,27.9,00.0,38.6,31.4,32.6,-000.2,0011.21,0005.85,0005.27
2022-08-17 18:25:00,,0832.8,5.00,0.00,29.8,28.0,00.0,38.6,31.5,32.6,0000.1,0011.25,0005.90,0005.32
2022-08-17 18:26:00,,0832.8,5.00,0.00,29.8,28.2,00.0,38.6,31.5,33.2,-000.1,0011.29,0005.98,0005.40
2022-08-17 18:27:00,,0832.9,5.00,0.00,29.8,28.3,00.0,38.6,31.5,33.0,0000.0,0011.91,0006.03,0005.45
2022-08-17 18:28:00,,0832.8,5.00,0.00,29.9,28.4,00.0,38.6,31.6,33.8,-000.0,0012.00,0006.04,0005.46
2022-08-17 18:29:00,,0832.8,5.00,0.00,29.9,28.3,00.0,38.5,31.6,32.7,-000.3,0011.67,0006.07,0005.50
2022-08-17 18:30:00,,0832.8,5.01,0.00,29.8,27.7,00.0,38.5,31.4,33.4,-000.3,0011.55,0006.06,0005.52
2022-08-17 18:31:00,,0832.8,4.99,0.00,29.8,27.3,00.0,38.4,31.3,32.7,0000.3,0011.81,0006.11,0005.56
2022-08-17 18:32:00,,0832.8,5.01,0.00,29.7,27.2,00.0,38.4,31.2,32.2,0000.6,0011.83,0006.17,0005.58
2022-08-17 18:33:00,,0832.8,4.99,0.00,29.6,27.3,00.0,38.4,31.2,32.3,0000.9,0011.85,0006.19,0005.59
2022-08-17 18:34:00,,0832.8,5.00,0.00,29.6,27.4,00.0,38.4,31.2,33.7,0001.1,0011.41,0006.19,0005.62
2022-08-17 18:35:00,,0832.8,5.00,0.00,29.6,27.6,00.0,38.4,31.3,32.5,0001.4,0010.46,0006.13,0005.59
2022-08-17 18:36:00,,0832.8,5.01,0.00,29.6,27.7,00.0,38.4,31.3,32.6,0001.1,0010.33,0006.08,0005.53
2022-08-17 18:37:00,,0832.8,4.99,0.00,29.6,27.9,00.0,38.4,31.4,32.1,0001.0,0010.18,0005.96,0005.45
2022-08-17 18:38:00,,0832.8,5.00,0.00,29.6,28.1,00.0,38.4,31.4,32.3,0000.7,0009.61,0005.85,0005.36
2022-08-17 18:39:00,,0832.8,5.00,0.00,29.6,28.2,00.0,38.4,31.4,32.7,0000.2,0009.53,0005.79,0005.30
2022-08-17 18:40:00,,0832.8,4.99,0.00,29.7,28.3,00.0,38.4,31.5,32.2,0000.0,0009.52,0005.73,0005.25
2022-08-17 18:41:00,,0832.8,4.99,0.00,29.7,28.3,00.0,38.4,31.5,33.1,-000.3,0009.85,0005.68,0005.19
2022-08-17 18:42:00,,0832.8,5.01,0.00,29.7,27.8,00.0,38.3,31.3,33.3,-001.1,0010.21,0005.63,0005.16
2022-08-17 18:43:00,,0832.9,5.00,0.00,29.6,27.3,00.0,38.3,31.2,32.9,-001.0,0010.22,0005.62,0005.13
2022-08-17 18:44:00,,0832.8,5.01,0.00,29.5,27.1,00.0,38.2,31.2,33.0,-000.9,0010.16,0005.61,0005.13
2022-08-17 18:45:00,,0832.8,5.00,0.00,29.5,27.2,00.0,38.2,31.1,33.9,-001.2,0010.01,0005.64,0005.13
2022-08-17 18:46:00,,0832.8,4.98,0.00,29.4,27.3,00.0,38.2,31.1,33.1,-001.3,0010.09,0005.67,0005.13
2022-08-17 18:47:00,,0832.8,5.01,0.00,29.4,27.5,00.0,38.2,31.2,33.1,-001.1,0009.97,0005.66,0005.14
2022-08-17 18:48:00,,0832.8,5.00,0.00,29.4,27.7,00.0,38.2,31.2,33.4,-000.7,0009.94,0005.68,0005.14
2022-08-17 18:49:00,,0832.7,4.99,0.00,29.5,27.8,00.0,38.2,31.3,32.5,-000.5,0009.91,0005.68,0005.16
2022-08-17 18:50:00,,0832.7,5.00,0.00,29.5,28.0,00.0,38.2,31.3,32.5,-000.4,0009.78,0005.70,0005.19
2022-08-17 18:51:00,,0832.7,5.00,0.00,29.5,28.2,00.0,38.2,31.4,31.9,-000.4,0009.99,0005.74,0005.20
2022-08-17 18:52:00,,0832.8,5.00,0.00,29.5,28.3,00.0,38.2,31.4,32.2,-000.1,0009.79,0005.74,0005.19
2022-08-17 18:53:00,,0832.8,5.01,0.00,29.6,28.4,00.0,38.3,31.5,32.6,0000.4,0010.14,0005.74,0005.17
2022-08-17 18:54:00,,0832.8,5.00,0.00,29.6,28.3,00.0,38.3,31.4,32.2,0000.4,0009.85,0005.68,0005.17
2022-08-17 18:55:00,,0832.8,5.00,0.00,29.5,27.7,00.0,38.2,31.2,32.4,0000.0,0009.90,0005.64,0005.14
2022-08-17 18:56:00,,0832.7,5.01,0.00,29.5,27.2,00.0,38.2,31.1,33.6,0000.0,0010.06,0005.57,0005.10
2022-08-17 18:57:00,,0832.7,5.00,0.00,29.4,27.1,00.0,38.1,31.1,33.4,-000.0,0009.91,0005.52,0005.08
2022-08-17 18:58:00,,0832.7,5.01,0.00,29.4,27.2,00.0,38.1,31.0,33.9,-000.1,0009.83,0005.47,0005.04
2022-08-17 18:59:00,,0832.7,5.00,0.00,29.3,27.3,00.0,38.1,31.1,34.0,-000.0,0009.81,0005.42,0005.01
